HINODE (SOLAR-B)

Last updated on Thu Oct 30 2025 00:03:36 GMT+0000 (Coordinated Universal Time)

1 29479U 06041A 25302.32439007 .00001055 00000+0 19157-3 0 9998 2 29479 98.0686 316.8014 0016399 303.0363 56.9266 14.68189634 20993
UTC large
Height (km)
Speed (km/s)
/
Latitude / Longitude
Inclination (degrees)
Orbital Period (minutes)
Azimuth
Elevation
Range (km)
Doppler Factor

Next 0 passes for location: London (51.5072 / 0.1276)

Sorry there are no passes over London.